EDT,Max TemperatureF,Mean TemperatureF,Min TemperatureF,Max Dew PointF,MeanDew PointF,Min DewpointF,Max Humidity, Mean Humidity, Min Humidity, Max Sea Level PressureIn, Mean Sea Level PressureIn, Min Sea Level PressureIn, Max VisibilityMiles, Mean VisibilityMiles, Min VisibilityMiles, Max Wind SpeedMPH, Mean Wind SpeedMPH, Max Gust SpeedMPH,PrecipitationIn, CloudCover, Events, WindDirDegrees
2013-5-1,71,61,51,53,43,30,100,62,23,30.42,30.34,30.30,10,7,1,13,4,18,0.00,3,,86
2013-5-2,71,55,39,44,42,37,93,63,32,30.44,30.38,30.32,10,10,9,12,3,16,0.00,0,,80
2013-5-3,69,54,39,46,42,39,96,65,33,30.40,30.34,30.28,10,10,10,14,4,22,0.00,1,,103
2013-5-4,69,54,39,43,40,36,86,60,33,30.33,30.27,30.17,10,10,10,14,4,24,0.00,3,,99
2013-5-5,65,52,38,40,38,36,85,61,37,30.25,30.20,30.14,10,10,10,13,4,22,0.00,1,,101
2013-5-6,61,52,42,56,49,39,89,80,71,30.19,30.13,30.06,10,8,2,13,5,20,0.07,7,Rain,48
2013-5-7,62,59,56,61,57,55,97,91,84,30.06,29.99,29.95,10,6,1,16,7,22,1.27,8,Rain,43
2013-5-8,69,59,49,57,53,49,100,77,53,30.01,29.98,29.93,10,7,0,13,2,17,0.03,6,Fog-Rain,206
2013-5-9,75,62,49,58,51,48,100,73,46,30.01,29.96,29.92,10,4,0,23,4,32,0.05,6,Fog-Rain,218
2013-5-10,82,66,49,62,56,48,100,70,39,30.02,29.95,29.87,10,6,1,23,3,39,0.02,3,Rain,200
2013-5-11,74,67,60,63,58,48,97,73,49,29.87,29.79,29.73,10,8,2,18,6,25,0.06,6,Rain,237
2013-5-12,62,52,42,48,33,23,66,47,28,30.04,29.89,29.79,10,10,10,28,13,35,0.01,2,,284
2013-5-13,58,48,37,31,26,20,76,50,24,30.19,30.10,30.04,10,10,10,26,8,32,0.00,2,,269
2013-5-14,64,48,31,40,33,28,92,61,30,30.23,30.14,30.03,10,10,9,12,2,16,0.00,4,,331
2013-5-15,89,68,47,64,50,40,77,53,29,30.00,29.84,29.68,10,10,10,24,5,30,0.00,2,,256
2013-5-16,79,70,61,60,55,50,78,57,35,29.95,29.84,29.75,10,10,7,16,8,28,0.02,1,Rain,242
2013-5-17,81,68,55,57,54,48,93,68,42,30.13,30.06,29.96,10,10,8,10,3,21,0.00,3,,107
2013-5-18,67,63,59,57,54,50,87,72,56,30.22,30.18,30.12,10,10,6,13,5,16,0.00,7,,123
2013-5-19,71,65,58,63,59,56,100,87,73,30.21,30.16,30.09,10,6,0,10,2,15,T,8,Fog-Rain,89
2013-5-20,82,72,61,66,63,60,100,79,58,30.11,30.05,29.97,10,5,0,12,2,26,T,6,Fog,105
2013-5-21,87,74,61,69,65,60,93,72,50,29.99,29.93,29.85,10,10,8,13,3,17,0.00,0,,168
2013-5-22,89,77,64,67,64,59,93,67,40,29.95,29.89,29.82,10,7,0,30,5,39,0.40,3,Fog-Rain,197
2013-5-23,78,71,63,66,64,61,100,81,62,29.89,29.84,29.75,10,8,3,16,4,20,0.24,6,Rain,190
2013-5-24,64,54,44,62,41,28,84,64,43,30.22,30.00,29.77,10,10,8,25,14,35,0.01,6,Rain,310
2013-5-25,65,54,43,33,31,28,62,45,27,30.24,30.18,30.13,10,10,10,24,13,32,0.00,1,,306
2013-5-26,72,60,48,40,33,30,66,44,22,30.25,30.20,30.15,10,10,10,21,9,24,0.00,0,,301
2013-5-27,67,53,39,54,43,37,93,65,37,30.30,30.25,30.20,10,10,9,9,2,12,T,2,Rain,204
2013-5-28,80,67,53,67,58,51,93,76,58,30.19,30.12,30.05,10,9,4,10,2,21,0.06,4,Rain,36
2013-5-29,88,73,58,66,60,57,97,69,40,30.12,30.09,30.06,10,4,0,18,4,24,0.00,2,Fog,215
2013-5-30,90,76,61,65,63,60,100,69,38,30.19,30.14,30.10,10,9,3,10,2,15,0.00,0,,183
2013-5-31,89,76,62,65,61,56,87,60,32,30.15,30.09,30.01,10,10,9,13,5,25,0.00,0,,183